Location: St. Louis
(38.6270°N, 90.1994°W)
Time: 07:01:50
(UTC-06:00)

A-11 Canister half - Pass Details

Date: 10 December 2021
Orbit: 1524 x 1684 km, 47.3° (Epoch: 17 January)

Event Time Altitude Azimuth Distance (km) Brightness Sun altitude
Rises 22:24:05 0° 217° (SW) 4,871 - -65.3°
Reaches altitude 10° 22:27:16 10° 213° (SSW) 3,902 - -65.8°
Maximum altitude 22:37:01 58° 138° (SE) 1,917 - -67.4°
Drops below altitude 10° 22:46:51 10° 63° (ENE) 3,947 - -68.8°
Sets 22:50:05 0° 60° (ENE) 4,931 - -69.3°
